SYRACUSE 4B

Last updated on Sun Jun 21 2026 00:03:09 GMT+0000 (Coordinated Universal Time)

1 57214U 23093B 26170.96293725 -.00000060 00000+0 00000+0 0 9990 2 57214 0.0176 27.0469 0000331 143.7789 77.5597 1.00267268 6995
UTC large
Height (km)
Speed (km/s)
/
Latitude / Longitude
Inclination (degrees)
Orbital Period (minutes)
Azimuth
Elevation
Range (km)
Doppler Factor

Next 0 passes for location: London (51.5072 / 0.1276)

No passes found over London.
SYRACUSE 4B